Location: Graswijk
(52.9667°N, 6.5500°E)
Time: 07:47:07
(UTC+00:00)

Cosmos 1606 Rocket - Pass Details

Date: 15 May 2026
Orbit: 595 x 625 km, 82.5° (Epoch: 5 June)

Event Time Altitude Azimuth Distance (km) Brightness Sun altitude
Exits shadow 21:17:14 14° 180° (S) 1,698 5.3 -12.5°
Maximum altitude 21:20:54 72° 98° (E) 641 3.5 -12.8°
Drops below altitude 10° 21:25:12 10° 15° (NNE) 1,955 6.8 -13.1°
Sets 21:27:25 0° 13° (NNE) 2,859 7.7 -13.3°
